www.pogodaiklimat.ru

Погода и климат >> Архив погоды >> Казахстан >> Караганда


АРХИВ ПОГОДЫ в Караганде

Время (UTC), дата Ветер
(напр.,м/с)
 
Видим.   Явления Облачность Т
(С)
Тd
(С)
f
(%)
Тe
(С)
Тes
(С)
Комфортность P
(гПа)
Po
(гПа)
Тmin
(С)
Tmax
(С)
R
(мм)
R24
(мм)
S
(см)
18 9.08 Ю 2 20 км 8/4 1000 м
[Cb cap Ci fib]
+25.0 +5.6 29 +25 +25 комфорт 1000.1 939.4 +30.8
21 9.08 СВ 4 20 км в посл. час ливневой дождь 9/9 600 м
[Cb cap]
+17.8 +12.4 71 +18 +18 тепло 1001.2 939.2
00 10.08 С 4 20 км {ливн. осадки} 9/9 600 м
[Cb cap]
+15.8 +13.7 87 +15 +15 по сезону 1002.2 939.6
03 10.08 С 5 4000 м дымка {ливн. осадки} 10/10 600 м
[Cb cap]
+14.6 +13.6 94 +13 +13 холодно 1003.3 940.5
06 10.08 СВ 5 20 км {ливн. осадки} 10/10 600 м
[Cb cap]
+16.0 +12.5 80 +15 +15 очень
холодно
1003.9 941.3 +14.6 0.3
09 10.08 СВ 3 20 км 9/8 600 м
[Cb cap Ac trans]
+19.0 +11.6 62 +20 +21 холодно 1003.4 941.4
12 10.08 СВ 4 20 км 8/6 600 м
[Cb cap Ci fib]
+21.5 +9.8 47 +23 +24 комфорт 1001.9 940.5
15 10.08 В 3 20 км 10/10 600 м
[Cb cap]
+19.6 +8.8 50 +21 +21 комфорт 1002.1 940.3 +22.4
18 10.08 В 4 10 км слабый ливневой дождь 10/10 600 м
[Cb cap]
+15.5 +12.5 82 +15 +15 прохладно 1002.1 939.5 +22.4
21 10.08 СВ 2 10 км слабый дождь {ливн. осадки} 10/10 300 м
[Frnb Ns]
+14.0 +12.0 88 +13 +13 прохладно 1002.4 939.5
00 11.08 С 5 10 км слабый дождь {ливн. осадки} 10/10 300 м
[Frnb Ns]
+11.0 +9.5 90 +8 +8 прохладно 1002.3 938.7
03 11.08 С 5 20 км в посл. час ливневой дождь 10/10 600 м
[Cb cap]
+11.2 +9.3 88 +8 +8 очень
холодно
1001.4 937.9
06 11.08 С 5 10 км слабый ливневой дождь 10/10 600 м
[Cb cap]
+10.4 +9.2 92 +7 +7 очень
холодно
1002.1 938.3 +11.0 2
09 11.08 С 3 10 км слабый ливневой дождь 10/10 600 м
[Cb cap]
+10.5 +8.9 90 +8 +8 очень
холодно
1004.6 940.7
12 11.08 СЗ 4 10 км слабый ливневой дождь 10/10 600 м
[Cb cap]
+9.9 +7.5 85 +7 +7 очень
холодно
1007.4 943.2
15 11.08 СЗ 2 20 км {ливн. осадки} 10/10 600 м
[Cb cap]
+10.0 +6.7 80 +9 +9 очень
холодно
1009.9 945.5 +11.7
18 11.08 З 2 20 км {ливн. осадки} 10/10 600 м
[Cb cap]
+9.3 +5.0 74 +8 +8 очень
холодно
1011.6 946.9 +11.7 7
21 11.08 З 2 20 км 10/10 600 м
[Cb cap]
+9.0 +3.6 69 +7 +7 очень
холодно
1012.5 947.7
00 12.08 З 1 20 км 9/8 600 м
[Cb cap Ac trans]
+7.2 +4.0 80 +6 +6 холодно 1014.1 948.8
03 12.08 З 1 20 км 8/6 1000 м
[Sc Ac trans]
+10.4 +3.0 60 +10 +12 очень
холодно
1014.6 950.0
06 12.08 З 3 20 км 9/9 600 м
[Cb cap]
+13.8 +3.4 49 +13 +14 очень
холодно
1014.3 950.5 +6.8
09 12.08 ЮЗ 3 20 км в посл. час ливневой дождь 10/10 600 м
[Cb cap]
+12.0 +4.7 61 +11 +11 очень
холодно
1016.2 951.8
12 12.08 З 3 20 км {ливн. осадки} 9/8 1000 м
[Cb cap Ac trans]
+15.1 +3.8 47 +15 +15 очень
холодно
1015.6 951.9
15 12.08 ЮЗ 1 20 км 6/4 600 м
[Cb cap Ac trans]
+13.0 +5.0 58 +13 +13 очень
холодно
1016.6 952.4 +15.5
18 12.08 Ю 2 20 км 6/6 1000 м
[Sc]
+11.0 +6.0 71 +10 +10 холодно 1017.1 952.5 +15.5 0.6
21 12.08 Ю 1 20 км 1/1 1000 м
[Sc]
+9.3 +5.0 74 +9 +9 холодно 1016.7 951.7
00 13.08 штиль 0 20 км 3/0
[Ac trans]
+5.0 +3.4 89 +4 +4 очень
холодно
1018.0 951.9
03 13.08 Ю 2 20 км 8/0
[Ac trans]
+12.7 +3.6 54 +12 +15 холодно 1016.7 952.4
06 13.08 Ю 2 20 км 4/3 1000 м
[Cu med, cong Ac trans Ci fib]
+18.2 +3.6 38 +19 +28 прохладно 1015.1 952.0 +4.4
09 13.08 Ю 3 20 км 8/6 1000 м
[Cu med, cong Ci fib]
+21.7 +1.0 25 +21 +25 комфорт 1013.4 951.2
12 13.08 Ю 3 20 км 8/5 1000 м
[Cu med, cong Ci fib]
+21.7 +1.0 25 +21 +22 комфорт 1013.0 950.8
15 13.08 ЮВ 3 20 км 4/0
[Ac trans Ci fib]
+18.6 +2.1 33 +19 +19 по сезону 1013.8 950.9 +23.0
18 13.08 ЮВ 2 20 км ясно +13.5 +2.7 48 +13 +13 прохладно 1015.1 951.1 +23.0
21 13.08 ЮВ 2 20 км 3/0
[Ac trans]
+10.5 +3.4 61 +9 +9 холодно 1016.1 951.4
00 14.08 ЮВ 2 20 км 3/0
[Ac trans]
+8.8 +3.4 69 +7 +7 холодно 1017.3 952.2
03 14.08 Ю 1 20 км 6/0
[Ac trans]
+15.5 +1.8 40 +16 +20 по сезону 1016.5 952.8
06 14.08 Ю 2 20 км 4/3 1000 м
[Cu hum Ci fib]
+22.3 -1.6 20 +21 +30 комфорт 1014.8 952.6 +8.8
09 14.08 Ю 2 20 км 8/6 1000 м
[Cu hum Ci fib]
+24.9 -0.7 18 +23 +28 комфорт 1013.9 952.2
12 14.08 штиль 0 20 км 9/8 1000 м
[Cu med, cong Ci fib]
+24.9 +2.4 23 +24 +25 комфорт 1013.8 952.3
15 14.08 ЮВ 2 20 км 6/4 1000 м
[Cb cap Ci fib]
+19.6 +4.9 38 +21 +21 комфорт 1015.0 952.3 +26.0
18 14.08 В 3 20 км ясно +15.0 +6.1 55 +14 +14 прохладно 1017.0 953.2 +26.0
21 14.08 В 2 20 км ясно +12.5 +5.6 63 +12 +12 прохладно 1017.4 953.0
00 15.08 СВ 3 20 км 4/3 1000 м
[Sc Ci fib]
+10.3 +5.4 72 +8 +8 прохладно 1017.9 953.1
03 15.08 СВ 3 20 км 1/0
[Ci fib]
+15.6 +6.6 55 +15 +19 прохладно 1017.6 954.0
06 15.08 В 5 20 км 3/3 1000 м
[Cu hum]
+17.8 +3.9 40 +17 +22 холодно 1017.0 953.8 +9.6
09 15.08 СВ 5 20 км 1/1 1000 м
[Cu hum]
+20.5 +3.8 33 +21 +27 комфорт 1015.7 953.1
12 15.08 СВ 5 20 км 1/1 1000 м
[Cu hum]
+20.8 +4.2 34 +21 +23 комфорт 1015.9 953.4
15 15.08 СВ 4 20 км 5/5 1000 м
[Sc diur, vesp]
+17.0 +3.8 41 +17 +17 прохладно 1018.1 954.6 +21.4
18 15.08 СВ 3 20 км ясно +12.5 +5.6 63 +11 +11 холодно 1019.1 954.7 +21.4
21 15.08 СВ 2 20 км ясно +10.7 +5.9 72 +10 +10 прохладно 1018.7 953.9
00 16.08 С 2 20 км ясно +7.0 +4.8 86 +5 +5 холодно 1020.1 954.3
03 16.08 СВ 2 20 км ясно +12.5 +6.3 66 +12 +17 холодно 1019.7 955.2
06 16.08 В 4 20 км ясно +17.4 +2.0 36 +17 +26 холодно 1018.2 954.8 +6.5
09 16.08 СВ 5 20 км ясно +19.6 +2.2 31 +20 +26 прохладно 1016.9 954.0
12 16.08 СВ 4 20 км 1/0
[Ci fib]
+20.0 +1.6 29 +20 +22 прохладно 1017.2 954.4
15 16.08 СВ 2 20 км 1/0
[Ac trans]
+15.5 +3.8 46 +16 +16 прохладно 1019.6 955.7 +21.2

 

Местоположение метеостанции Караганда (Карагандинская область, Казахстан): широта 49.80 долгота 73.15 высота над уровнем моря 553 м.

В архиве по умолчанию представлена погода в Караганде за последнюю неделю. Архивные данные за месяц целиком и за предыдущие месяцы, начиная с января 2011 года, Вы можете получить, выбрав интересующий диапазон дат из раскрывающегося списка и нажав кнопку "Ввод!".

Внимание! Время в таблицах - всемирное. Для получения местного времени необходимо прибавить поправку, которая в Караганде равна 6 ч.

Смотрите также архив погоды в соседних городах и на ближайших метеорологических станциях:

Погода в Караганде-ШОС (Карагандинская область, Казахстан) (4 км)
Погода в Корнеевке (Карагандинская область, Казахстан) (11 км)
Погода в Темиртау (Карагандинская область, Казахстан) (33 км)
Погода в Топаре (Карагандинская область, Казахстан) (40 км)
Погода в Осакаровке (Карагандинская область, Казахстан) (94 км)
Погода в Молодежном (Карагандинская область, Казахстан) (107 км)
Погода в Бесобе (Карагандинская область, Казахстан) (108 км)
Погода в Жарыке (Карагандинская область, Казахстан) (108 км)
Погода в Кертинди (Карагандинская область, Казахстан) (114 км)
Погода в Киевке (Карагандинская область, Казахстан) (123 км)

Пояснения к столбцам:

Ветер - указаны скорость ветра в м/с - средняя за 10 мин, порывы в срок и между сроками (в фигурных скобках) и направление, откуда дует ветер: С - северный, СВ - северо-восточный, В - восточный, ЮВ - юго-восточный, Ю - южный, ЮЗ - юго-западный, З - западный, СЗ - северо-западный.
Видимость - горизонтальная дальность видимости в метрах или километрах. При видимости от 1 до 10 км при отсутствии осадков обычно наблюдается дымка, при ухудшении видимости до 1 км и менее - туман. В сухую погоду видимость может ухудшаться дымом, пылью или мглою.
Явления - указаны атмосферные явления, наблюдавшиеся в срок или в последний час перед сроком; фигурными скобками обозначены явления, наблюдавшиеся между сроками (за 1-3 часа до срока); квадратными скобками обозначены град или гололедные отложения с указанием их диаметра в мм.
Облачность - указаны через наклонную черту общая и нижняя облачность в баллах и высота нижней границы облаков в метрах; квадратными скобками обозначены формы облаков: Ci - перистые, Cs - перисто-слоистые, Cc - перисто-кучевые, Ac - высококучевые, As - высокослоистые, Sc - слоисто-кучевые, Ns - слоисто-дождевые, Cu - кучевые, Cb - кучево-дождевые. Подробнее классификацию облаков см. в Атласе облаков (PDF).
T - Температура воздуха - температура, измеренная на высоте 2 м над землей.
Td - Температура точки росы - температура, при понижении до которой содержащийся в воздухе водяной пар достигнет насыщения.
f - Относительная влажность воздуха - влажноcть воздуха, измеренная на высоте 2 м над землей.
Te - Эффективная температура - температура, которую ощущает одетый по сезону человек в тени. Характеристика душности погоды. При расчете учитывается влияние влажности воздуха и скорости ветра на теплоощущения человека.
Tes - Эффективная температура на солнце - температура, которую ощущает человек, с поправкой на солнечный нагрев. Характеристика знойности погоды. Зависит от высоты солнца над горизонтом, облачности и скорости ветра. Ночью, в пасмурную погоду, а также при ветре 12 м/с и более поправка равна нулю.
P - Атмосферное давление - приведенное к уровню моря атмосферное давление.
Po - Атмосферное давление - измеренное на уровне метеостанции атмосферное давление.
Tmin - Минимальная температура - минимум температуры воздуха на высоте 2 м над землей.
Tmax - Максимальная температура - максимум температуры воздуха на высоте 2 м над землей.
R - Количество осадков - Количество выпавших осадков за период времени, мм. При наведении курсора мыши на число - период времени, за который выпало указанное количество осадков.
R24 - Количество осадков - Количество выпавших осадков за 24 часа, мм.
S - Снежный покров - Высота снежного покрова, см. При наведении курсора мыши на число - состояние снежного покрова и степень покрытия местности в баллах.